This is the latest recevied weather packets stored in our database for station/object KG2V. If no packets are shown the sender has not sent any weather packets the latest 10 day(s).
| Time | Temp. | Humidity | Pressure | Rain* | Wind** | Luminosity | Snow |
|---|---|---|---|---|---|---|---|
| 1777751573 | 7.22° C | 63% | 1010.2 hPa | 0 mm | - | 177 W/m² | - |
| 1777751270 | 7.22° C | 66% | 1010.2 hPa | 0 mm | - | 184 W/m² | - |
| 1777750967 | 7.22° C | 66% | 1010.3 hPa | 0 mm | - | 90 W/m² | - |
| 1777750662 | 7.22° C | 65% | 1010.2 hPa | 0 mm | - | 75 W/m² | - |
| 1777750360 | 7.22° C | 62% | 1010.2 hPa | 0 mm | - | 116 W/m² | - |
| 1777750060 | 7.22° C | 62% | 1010.4 hPa | 0 mm | - | 195 W/m² | - |
| 1777749758 | 7.22° C | 64% | 1010.3 hPa | 0 mm | - | 215 W/m² | - |
| 1777749454 | 7.22° C | 64% | 1010.5 hPa | 0 mm | - | 185 W/m² | - |
| 1777749152 | 7.22° C | 64% | 1010.3 hPa | 0 mm | - | 135 W/m² | - |
| 1777748849 | 7.22° C | 63% | 1010.4 hPa | 0 mm | - | 142 W/m² | - |
| 1777748547 | 7.22° C | 62% | 1010.5 hPa | 0 mm | - | 191 W/m² | - |
| 1777748247 | 7.22° C | 62% | 1010.4 hPa | 0 mm | - | 212 W/m² | - |
| 1777747943 | 7.22° C | 61% | 1010.2 hPa | 0 mm | - | 164 W/m² | - |
| 1777747640 | 6.67° C | 63% | 1010.1 hPa | 0 mm | - | 119 W/m² | - |
| 1777747335 | 6.67° C | 63% | 1010.3 hPa | 0 mm | - | 97 W/m² | - |
| 1777747032 | 7.22° C | 64% | 1010.2 hPa | 0 mm | - | 87 W/m² | - |
| 1777746728 | 6.67° C | 61% | 1010.1 hPa | 0 mm | - | 87 W/m² | - |
| 1777746423 | 7.78° C | 60% | 1010.3 hPa | 0 mm | - | 56 W/m² | - |
| 1777746119 | 7.78° C | 60% | 1010.2 hPa | 0 mm | - | 42 W/m² | - |
| 1777745817 | 7.78° C | 57% | 1010 hPa | 0 mm | - | 152 W/m² | - |
| 1777745516 | 7.22° C | 58% | 1010.2 hPa | 0 mm | - | 162 W/m² | - |
| 1777745212 | 7.78° C | 58% | 1010.1 hPa | 0 mm | - | 95 W/m² | - |
| 1777744910 | 8.33° C | 55% | 1010.1 hPa | 0 mm | - | 110 W/m² | - |
| 1777744608 | 7.78° C | 57% | 1009.9 hPa | 0 mm | - | 226 W/m² | - |
| 1777744304 | 8.33° C | 53% | 1009.9 hPa | 0 mm | - | 176 W/m² | - |
* Rain latest hour (hover to see other rain measurements)
** Current wind speed in m/s (hover to see current wind gust speed)